Wind_Speed
1 1 2 2 2 3 3 4 5 6 7 7 6 6 7 7 7 7 7 7 8 8 8 9 9 10 11 10 10 10 10 11 12 12 13 13 13 14 14 16 16 16 16
1 2 3 3 3 3 4 5 6 6 7 6 6 6 7 7 7 8 9 9 9 8 9 9 10 10 11 11 11 11 11 11 12 13 14 14 14 15 15 16 17 17 17
2 2 3 4 4 5 5 6 6 6 6 7 8 8 8 8 9 10 10 10 10 10 10 11 11 11 12 12 13 13 13 14 14 14 14 15 15 15 16 16 16 17 17
2 3 4 5 5 5 6 6 6 7 7 8 9 9 10 10 10 10 10 11 11 11 11 12 12 13 13 13 13 14 14 15 15 15 15 16 16 16 17 17 18 18 18
4 4 5 5 5 6 6 7 7 8 8 9 9 10 11 11 11 11 11 12 12 13 13 13 14 14 14 15 15 15 15 15 15 16 16 17 17 18 18 18 19 19 18
5 5 6 6 7 7 8 8 9 9 9 10 11 11 12 13 13 13 13 13 13 14 15 15 15 15 15 16 16 16 16 16 16 17 17 17 18 18 18 18 19 19 19
6 7 7 8 8 9 9 10 10 11 11 12 12 13 13 14 14 14 14 14 14 14 15 15 16 16 16 17 17 17 18 18 17 17 17 18 18 18 18 19 19 19 19
8 8 9 9 10 11 11 11 11 12 13 13 13 14 14 15 15 15 15 15 15 15 15 16 16 17 17 17 18 18 18 19 18 18 18 18 18 19 19 20 20 20 20
9 9 10 11 12 12 13 13 13 13 13 14 14 15 15 16 16 15 15 16 16 16 17 16 16 17 18 19 19 20 19 19 19 19 19 20 19 20 20 20 20 20 21
10 11 12 12 13 13 14 14 14 14 15 15 16 16 16 16 16 15 15 16 16 17 17 17 17 17 19 21 22 22 21 21 20 21 21 21 21 22 21 22 22 22 22
12 12 13 13 14 14 15 16 16 16 16 16 16 17 17 17 16 16 16 16 17 18 18 18 18 19 20 21 22 23 24 23 23 22 23 23 23 23 23 23 23 24 24
14 14 15 15 15 15 16 17 18 18 17 18 18 18 18 18 17 17 18 18 18 19 19 20 20 21 22 22 22 22 24 25 25 25 24 25 25 25 25 25 25 25 25
15 15 16 16 17 17 18 19 19 19 20 20 20 19 19 19 19 20 20 20 20 21 21 21 22 23 23 23 23 23 24 25 26 26 26 26 26 26 26 26 26 25 25
16 17 17 18 19 19 20 20 20 21 21 21 21 20 21 21 21 21 22 22 22 23 23 23 23 24 24 24 24 24 24 24 26 26 26 27 27 27 27 27 26 25 25
18 18 18 19 20 20 21 21 20 21 21 21 21 22 22 22 22 22 23 23 24 24 24 24 24 25 25 25 25 25 25 25 25 25 25 26 27 27 28 28 27 26 25
19 19 19 20 21 21 21 22 22 22 22 22 23 23 24 24 24 24 24 25 25 25 25 25 26 26 26 26 26 25 25 25 26 26 26 25 25 25 26 26 26 26 25
20 21 22 23 23 23 24 24 24 24 24 24 25 25 26 26 26 26 26 26 26 26 26 26 27 26 27 26 25 25 25 25 25 26 26 26 25 25 25 24 24 24 25
22 23 24 25 25 25 26 26 26 26 26 26 27 27 27 27 27 28 28 28 28 28 28 27 27 27 27 26 26 26 26 25 24 24 25 25 25 24 24 24 24 24 24
25 26 26 27 27 27 28 28 28 27 27 28 29 29 29 29 29 29 29 29 30 30 29 29 28 28 27 27 26 26 25 25 24 24 24 24 24 24 24 24 24 24 24
27 28 28 28 29 29 29 29 29 28 28 29 29 30 30 30 30 30 30 30 30 30 30 29 29 29 28 27 26 26 26 25 25 25 25 24 25 24 24 24 25 24 24
29 30 30 30 30 30 30 30 30 30 29 29 29 30 31 30 31 30 30 31 31 31 30 30 30 29 28 27 27 26 26 25 25 26 26 26 26 26 25 25 25 25 25
31 31 32 32 32 31 31 31 31 31 31 31 30 30 30 31 31 31 31 32 32 32 31 30 30 30 29 28 27 27 26 26 25 25 25 25 26 26 26 26 26 26 26
32 32 33 33 33 33 32 32 33 32 32 31 31 31 31 31 32 32 32 30 30 30 30 30 30 30 30 28 27 27 26 26 26 25 25 25 25 26 26 25 25 25 25
34 33 33 34 34 33 34 34 32 32 32 32 32 32 32 33 33 32 31 31 31 31 30 30 30 30 30 29 28 28 28 28 26 25 25 25 25 26 25 25 25 25 25
34 35 34 34 34 34 33 34 33 34 33 32 32 33 33 33 33 32 32 32 32 30 30 30 30 29 29 28 28 28 28 27 27 25 25 25 26 26 26 26 25 25 25
35 35 34 34 33 33 33 33 33 34 34 33 33 33 33 33 33 33 32 32 32 30 30 30 30 29 28 28 28 28 28 27 27 27 26 26 26 26 26 26 25 25 26
Wind_Direction
25 11 359 338 326 323 300 295 299 295 288 282 287 292 287 288 293 299 293 290 287 280 276 279 277 276 273 272 271 270 274 280 281 282 281 285 285 283 282 279 277 274 271
353 360 358 352 335 317 302 299 304 303 295 295 299 302 301 290 290 292 289 289 287 286 281 280 279 280 277 276 277 277 278 280 282 282 281 282 285 283 284 282 278 279 274
319 330 334 337 335 324 312 304 302 300 296 291 295 297 299 298 296 293 287 286 284 283 285 285 283 283 283 281 277 279 281 281 284 286 283 281 282 281 283 284 281 281 279
312 319 320 320 322 322 317 313 305 297 296 295 295 297 298 300 302 302 295 292 287 287 287 287 284 282 283 283 282 284 283 282 282 284 283 280 282 283 283 283 282 282 280
302 305 309 306 306 311 312 312 309 299 298 301 298 298 299 301 304 303 299 295 292 289 290 289 287 282 281 282 285 285 286 282 281 282 282 280 282 284 284 282 281 280 279
297 299 303 301 298 302 304 304 306 300 297 298 298 298 299 301 300 299 298 294 292 290 289 289 290 285 280 280 283 285 284 285 284 284 283 283 285 283 283 282 282 282 279
297 302 302 296 295 298 300 300 301 298 298 296 298 298 298 301 302 299 296 294 293 293 291 288 289 287 285 283 284 285 284 284 285 286 287 287 287 287 285 284 283 283 283
296 298 302 298 293 295 297 294 295 295 297 296 297 298 298 298 296 297 296 295 295 293 291 291 289 287 285 285 284 283 284 284 284 284 287 287 286 286 285 286 284 284 283
293 292 294 297 297 295 296 293 292 292 293 292 294 295 295 296 295 297 297 295 296 296 294 292 290 288 284 284 284 283 283 284 284 283 284 287 285 286 287 287 287 285 282
295 296 293 293 294 294 293 293 292 290 290 290 291 293 293 295 294 295 298 298 297 297 295 294 292 292 286 284 284 282 281 282 284 284 284 285 283 283 284 284 283 282 282
296 297 297 295 294 293 292 293 292 290 292 291 292 293 293 294 294 296 296 297 297 297 296 293 291 292 292 288 286 284 281 280 281 282 283 284 283 283 284 283 280 280 280
295 295 297 298 297 296 295 293 292 290 290 291 293 293 292 292 293 293 296 295 296 296 296 296 293 293 294 293 290 287 284 281 281 281 281 283 282 283 283 283 280 280 280
295 295 295 298 298 298 297 294 290 291 292 293 292 293 292 291 292 293 294 293 294 295 295 295 294 296 296 294 292 292 289 285 283 282 280 280 281 282 281 282 281 281 279
298 296 295 296 297 298 297 295 291 291 291 291 291 292 292 291 289 290 290 291 292 293 294 293 293 295 295 294 293 292 290 288 284 282 281 279 278 279 279 280 279 278 278
297 295 295 296 296 296 296 296 296 293 291 289 290 291 291 290 289 289 289 289 290 291 293 292 292 293 295 295 293 293 292 290 287 283 281 280 278 277 277 278 278 276 276
300 299 297 297 297 297 296 295 295 293 291 290 289 289 289 290 290 289 289 289 290 292 293 294 293 293 295 296 294 293 292 292 290 286 282 280 279 278 279 278 277 275 274
298 298 299 298 299 299 297 295 292 291 290 289 287 287 287 287 288 287 287 287 288 289 290 291 292 293 293 294 296 295 294 293 292 289 285 283 281 280 278 279 277 274 273
298 298 299 299 300 299 296 294 292 290 289 289 287 287 286 286 286 286 285 285 286 286 287 288 290 291 292 292 294 295 295 292 291 289 286 284 283 282 279 277 277 275 275
299 299 298 297 297 297 296 295 293 291 289 288 287 286 286 285 285 284 285 285 285 285 285 285 287 288 290 291 292 292 291 290 290 288 286 285 284 282 281 279 278 276 275
297 297 297 297 297 296 295 294 294 292 290 288 287 285 285 285 283 282 283 285 285 284 284 284 284 285 287 289 289 290 289 288 288 287 287 286 284 282 281 280 281 280 277
296 296 296 296 296 295 295 294 293 291 290 289 288 287 284 284 283 282 282 283 283 283 283 283 282 282 284 287 288 289 289 289 288 287 285 285 284 282 280 278 280 280 278
295 295 295 295 294 294 294 293 293 291 288 286 286 286 284 283 284 282 282 282 283 284 283 283 282 281 281 283 286 287 290 290 289 287 285 284 283 283 281 278 278 279 279
293 293 294 294 293 293 293 292 292 291 289 286 285 285 282 282 284 283 284 284 285 284 284 282 281 280 281 284 285 287 289 290 288 286 285 284 283 282 282 280 279 280 279
292 293 293 294 293 292 292 291 291 289 288 286 286 286 285 286 287 285 285 285 285 283 283 282 282 281 281 285 287 287 289 288 287 286 285 285 284 283 282 280 279 280 280
292 292 293 293 293 293 293 292 289 289 287 288 288 286 285 286 286 284 283 283 284 282 281 281 280 281 282 284 286 286 287 288 289 288 285 283 282 282 282 282 281 280 279
292 292 292 292 293 292 292 293 292 289 288 288 287 287 286 284 284 283 283 282 283 282 281 280 280 281 283 284 284 285 286 286 286 285 283 282 282 282 283 282 280 280 281
Height
5897 5896 5895 5894 5893 5893 5892 5891 5891 5890 5889 5888 5888 5887 5887 5886 5885 5885 5884 5884 5883 5882 5882 5881 5880 5879 5878 5878 5877 5877 5877 5876 5876 5876 5875 5875 5875 5874 5874 5873 5872 5872 5871
5896 5896 5895 5894 5893 5892 5892 5891 5890 5889 5888 5887 5886 5886 5885 5884 5884 5883 5882 5881 5881 5880 5879 5878 5877 5876 5876 5875 5875 5874 5874 5874 5873 5873 5872 5872 5872 5871 5870 5869 5869 5868 5868
5896 5895 5895 5894 5893 5892 5891 5890 5889 5888 5887 5886 5885 5884 5884 5883 5882 5881 5880 5879 5878 5877 5876 5875 5874 5874 5873 5872 5872 5871 5871 5871 5870 5869 5869 5868 5868 5867 5867 5866 5865 5864 5864
5895 5894 5893 5893 5892 5891 5890 5889 5888 5887 5886 5884 5883 5883 5882 5881 5880 5878 5877 5876 5875 5874 5873 5873 5872 5871 5870 5870 5869 5868 5867 5867 5866 5866 5865 5864 5864 5863 5863 5862 5861 5860 5859
5894 5893 5892 5891 5890 5889 5888 5887 5886 5885 5884 5882 5881 5880 5879 5878 5877 5876 5875 5873 5872 5871 5870 5869 5869 5868 5867 5866 5866 5865 5863 5862 5862 5861 5861 5860 5859 5859 5858 5857 5856 5855 5855
5893 5892 5891 5890 5889 5888 5887 5886 5884 5883 5882 5880 5879 5878 5877 5876 5874 5873 5872 5870 5869 5868 5867 5866 5865 5864 5863 5862 5862 5861 5860 5859 5858 5857 5856 5855 5855 5854 5853 5852 5851 5851 5850
5891 5890 5889 5888 5887 5886 5885 5883 5882 5881 5879 5878 5877 5876 5875 5873 5871 5870 5868 5867 5866 5864 5863 5862 5861 5860 5859 5858 5857 5856 5855 5855 5854 5853 5852 5851 5850 5849 5848 5847 5847 5846 5845
5890 5889 5887 5886 5885 5884 5883 5881 5880 5878 5877 5875 5874 5873 5872 5871 5869 5867 5865 5863 5862 5860 5859 5858 5857 5855 5854 5853 5853 5852 5851 5850 5849 5848 5847 5846 5846 5845 5844 5842 5842 5841 5840
5888 5886 5885 5884 5883 5881 5880 5879 5877 5876 5874 5872 5871 5870 5868 5867 5865 5864 5861 5860 5858 5856 5855 5854 5852 5851 5850 5849 5848 5847 5846 5845 5844 5843 5842 5841 5840 5839 5838 5837 5836 5836 5834
5885 5884 5882 5881 5880 5878 5877 5876 5874 5872 5871 5869 5867 5866 5864 5862 5861 5860 5858 5856 5854 5852 5851 5849 5848 5846 5845 5844 5842 5841 5841 5840 5839 5838 5837 5836 5835 5833 5832 5831 5831 5830 5829
5882 5881 5879 5878 5876 5875 5873 5872 5870 5869 5867 5865 5864 5862 5860 5858 5856 5855 5854 5852 5850 5848 5846 5845 5843 5842 5840 5838 5837 5836 5835 5834 5833 5832 5831 5829 5828 5827 5826 5825 5824 5823 5822
5879 5877 5876 5874 5873 5871 5870 5868 5866 5864 5863 5861 5859 5858 5856 5854 5852 5851 5849 5848 5846 5844 5842 5840 5838 5836 5834 5833 5831 5829 5828 5827 5826 5825 5824 5823 5822 5821 5820 5819 5818 5817 5815
5875 5874 5872 5871 5869 5867 5865 5863 5862 5860 5858 5856 5854 5853 5851 5849 5847 5846 5844 5843 5841 5839 5837 5835 5833 5831 5829 5827 5825 5823 5821 5820 5819 5818 5817 5816 5815 5814 5813 5812 5811 5810 5809
5872 5870 5868 5866 5864 5863 5861 5859 5857 5855 5853 5851 5849 5847 5846 5844 5842 5841 5839 5838 5836 5834 5832 5830 5827 5825 5823 5821 5819 5817 5815 5813 5812 5811 5809 5808 5807 5806 5805 5805 5804 5803 5803
5868 5866 5863 5861 5859 5858 5856 5854 5852 5850 5848 5846 5844 5842 5840 5838 5837 5835 5833 5831 5830 5828 5826 5824 5822 5819 5817 5815 5813 5811 5809 5807 5805 5803 5802 5801 5800 5799 5798 5797 5797 5796 5796
5863 5861 5859 5857 5855 5853 5851 5848 5846 5844 5842 5840 5838 5836 5834 5832 5831 5829 5827 5825 5823 5821 5819 5818 5815 5813 5811 5808 5806 5804 5802 5800 5798 5796 5795 5793 5792 5791 5791 5790 5789 5789 5789
5858 5856 5854 5852 5849 5847 5845 5843 5840 5838 5836 5834 5832 5830 5828 5826 5824 5822 5820 5818 5816 5814 5812 5811 5809 5806 5804 5802 5800 5798 5796 5793 5792 5790 5788 5787 5785 5784 5784 5783 5782 5782 5782
5853 5851 5848 5846 5843 5841 5838 5836 5834 5832 5829 5827 5825 5823 5821 5819 5817 5815 5813 5811 5809 5807 5805 5804 5802 5800 5798 5796 5794 5792 5789 5787 5785 5783 5781 5780 5779 5778 5777 5776 5775 5775 5775
5847 5845 5842 5840 5837 5834 5832 5829 5827 5824 5822 5820 5818 5815 5813 5811 5809 5808 5806 5804 5802 5800 5798 5796 5794 5793 5791 5789 5787 5785 5783 5781 5778 5777 5775 5774 5772 5771 5770 5769 5769 5768 5768
5841 5838 5835 5833 5830 5827 5824 5822 5819 5816 5814 5812 5809 5807 5805 5803 5802 5800 5798 5796 5793 5791 5790 5788 5786 5785 5783 5782 5780 5778 5776 5774 5772 5770 5768 5767 5766 5764 5763 5763 5762 5762 5761
5834 5831 5828 5825 5822 5819 5817 5814 5811 5809 5806 5803 5801 5798 5796 5794 5792 5791 5789 5787 5785 5783 5781 5779 5778 5777 5775 5774 5772 5770 5768 5767 5765 5763 5761 5760 5758 5757 5756 5756 5755 5755 5754
5826 5823 5820 5817 5814 5811 5808 5805 5803 5800 5797 5795 5792 5790 5788 5786 5784 5782 5780 5778 5776 5775 5773 5771 5769 5768 5767 5766 5764 5763 5761 5760 5758 5756 5754 5753 5751 5750 5749 5749 5748 5747 5747
5818 5814 5812 5808 5806 5803 5800 5797 5793 5791 5788 5785 5783 5781 5779 5777 5775 5773 5771 5770 5768 5766 5764 5763 5761 5760 5759 5758 5757 5755 5754 5752 5751 5749 5747 5746 5744 5743 5742 5741 5741 5740 5739
5809 5806 5803 5800 5797 5794 5791 5787 5784 5782 5779 5776 5774 5773 5771 5768 5766 5764 5762 5761 5759 5757 5756 5754 5753 5752 5751 5750 5749 5748 5746 5745 5744 5742 5740 5739 5738 5736 5735 5734 5733 5732 5731
5800 5797 5794 5791 5788 5785 5781 5778 5775 5772 5769 5767 5765 5763 5761 5759 5757 5755 5754 5752 5750 5748 5747 5745 5744 5743 5743 5742 5741 5740 5738 5737 5736 5735 5733 5732 5731 5729 5728 5726 5725 5725 5724
5791 5787 5785 5782 5779 5775 5772 5769 5766 5763 5760 5758 5755 5753 5751 5750 5748 5746 5744 5742 5741 5739 5738 5737 5736 5735 5734 5733 5732 5731 5730 5729 5728 5727 5726 5724 5723 5722 5721 5719 5718 5717 5717